Regional Weather Roundup
Issued by NWS New Orleans/Baton Rouge, LA

Home | Current Version | Previous Version | Text Only | Print | Product List | Glossary Off
Versions: 1 2 3 4 5 6 7 8 9 10 11 12 13 14 15 16 17 18 19 20 21 22 23 24 25 26 27 28 29 30 31 32 33 34 35 36 37 38 39 40 41 42 43 44 45 46 47 48 49 50

301
ASUS44 KLIX 211205
RWRLIX
NEW ORLEANS REGIONAL WEATHER ROUNDUP
NATIONAL WEATHER SERVICE NEW ORLEANS LA
600 AM CST FRI NOV 21 2014

NOTE: "FAIR" INDICATES FEW OR NO CLOUDS BELOW 12,000 FEET WITH NO
      SIGNIFICANT WEATHER AND/OR OBSTRUCTIONS TO VISIBILITY.
      SKY/WX - SKY CONDITION AND SIGNIFICANT WEATHER.
      TMP - AIR TEMPERATURE.     DP    - DEWPOINT TEMPERATURE.
      RH  - RELATIVE HUMIDITY.   PRES  - PRESSURE.
      HI  - HEAT INDEX.          WCI   - WIND CHILL INDEX.

*  THESE STATIONS ARE NOT NWS OR FAA STATIONS AND ARE NOT UNDER
   NWS QUALITY CONTROL.

LAZ038-040-048-061>063-065>067-069-211300-
SOUTHEAST LOUISIANA

CITY           SKY/WX    TMP DP  RH WIND       PRES   REMARKS
N.O. AUDUBON   NOT AVBL
N.O. INTL ARPT PTCLDY    48  44  86 CALM      30.25R
6HR MIN TEMP:  47; 6HR MAX TEMP:  54;

N.O. LAKEFRONT CLEAR     52  47  83 E8        30.26R
6HR MIN TEMP:  50; 6HR MAX TEMP:  55;

N.O. DOWNTOWN*   N/A     57  43  58 SE6       30.26R
6HR MIN TEMP:  54; 6HR MAX TEMP:  57;

SLIDELL        CLEAR     39  37  92 CALM      30.26R
6HR MIN TEMP:  37; 6HR MAX TEMP:  43;

BATON ROUGE    CLOUDY    46  44  93 E6        30.24R
6HR MIN TEMP:  43; 6HR MAX TEMP:  51;

BOOTHVILLE     CLEAR     55  51  86 E5        30.26R
6HR MIN TEMP:  51; 6HR MAX TEMP:  55;

BELLE CHASSE   PTCLDY    42  38  85 CALM      30.25R
6HR MIN TEMP:  41; 6HR MAX TEMP:  55;

BOGALUSA*        N/A     38  36  91 CALM      30.29R
6HR MIN TEMP:  37; 6HR MAX TEMP:  45;

NEW ROADS*     CLOUDY    50  47  89 CALM      30.24R
6HR MIN TEMP:  46; 6HR MAX TEMP:  54;

GONZALES*      PTSUNNY   44  44 100 CALM      30.25R
6HR MIN TEMP:  43; 6HR MAX TEMP:  48;

HAMMOND*       CLEAR     41  39  93 CALM      30.27R
HOUMA*         PTCLDY    45  45 100 CALM      30.24R
PORT FOURCHON* SUNNY     63  52  67 SE8       30.27R

$$

MSZ070-080>082-211300-
SOUTHERN MISSISSIPPI

CITY           SKY/WX    TMP DP  RH WIND       PRES   REMARKS
MCCOMB         CLEAR     40  37  89 N3        30.26R
6HR MIN TEMP:  39; 6HR MAX TEMP:  49;

GULFPORT       CLEAR     41  40  96 N5        30.28R
6HR MIN TEMP:  40; 6HR MAX TEMP:  44;

BILOXI         CLEAR     44  44 100 N5        30.28R
6HR MIN TEMP:  43; 6HR MAX TEMP:  47;

PASCAGOULA     CLEAR     35  34  96 CALM      30.28S
6HR MIN TEMP:  34; 6HR MAX TEMP:  40;


$$

COASTAL OBSERVATIONS
LAKE AND NEARSHORE STATIONS

STATION/POSITION TIME  TEMP    WIND        PRES    WAVE
                       AIR SEA DIR/SP/G            HT/PER
                 (UTC) (F)     (DEG/KT/KT) (MB)    (FT/S)
PASCAGOULA       1200   47      50/  4/  5 1024.6
WAVELAND YACHT   1200   49      40/  4/  4 1024.2
GRAND ISLE       1200   61 58  100/  6/  9 1024.4
SOUTHWEST PASS   1200   61 73              1024.3
NEW CANAL        1200   51 53  140/  3/  5 1024.6
SHELL BEACH      1200   53 49   50/  1/  1 1024.6

OFFSHORE STATIONS

STATION/POSITION TIME  TEMP    WIND        PRES    WAVE
                       AIR SEA DIR/SP/G            HT/PER
                 (UTC) (F)     (DEG/KT/KT) (MB)    (FT/S)
64 S DAUPHIN ISL 1113   64 72  100/ 10/ 16 1025.3    2/ 5

$$




USA.gov is the U.S. government's official web portal to all federal, state and local government web resources and services.